CDT,Max TemperatureF,Mean TemperatureF,Min TemperatureF,Max Dew PointF,MeanDew PointF,Min DewpointF,Max Humidity, Mean Humidity, Min Humidity, Max Sea Level PressureIn, Mean Sea Level PressureIn, Min Sea Level PressureIn, Max VisibilityMiles, Mean VisibilityMiles, Min VisibilityMiles, Max Wind SpeedMPH, Mean Wind SpeedMPH, Max Gust SpeedMPH,PrecipitationIn, CloudCover, Events, WindDirDegrees
2014-4-1,41,29,17,22,16,11,79,59,40,30.10,30.00,29.80,10,10,10,30,15,39,0.00,4,Snow,305
2014-4-2,49,36,24,35,26,21,91,71,37,30.11,30.01,29.87,10,10,7,21,9,29,0.00,5,,60
2014-4-3,39,34,30,35,34,30,100,95,83,29.85,29.79,29.71,10,5,1,15,10,23,0.11,8,Rain-Snow,36
2014-4-4,38,32,25,32,29,23,100,87,71,30.12,29.96,29.75,10,8,0,25,13,33,0.00,7,Snow,319
2014-4-5,56,38,19,37,29,18,100,74,39,30.12,30.04,29.94,10,9,5,22,7,26,0.00,0,,178
2014-4-6,64,50,37,40,36,29,81,60,35,29.94,29.87,29.80,10,10,7,17,10,24,0.00,2,Thunderstorm,197
2014-4-7,62,50,39,44,37,33,88,68,33,29.91,29.83,29.78,10,10,7,18,5,29,0.00,5,Rain-Thunderstorm,345
2014-4-8,55,42,30,36,29,14,94,62,30,30.06,30.00,29.90,10,10,10,17,10,28,0.00,2,,337
2014-4-9,77,52,27,34,28,13,92,45,18,30.02,29.79,29.57,10,10,10,28,7,34,0.00,1,,195
2014-4-10,66,52,37,40,28,16,76,41,16,29.99,29.87,29.57,10,10,10,23,9,31,0.00,0,,336
2014-4-11,75,54,32,36,28,18,73,40,17,29.99,29.93,29.80,10,10,7,18,5,26,0.00,1,,216
2014-4-12,83,67,52,53,45,30,86,50,27,29.79,29.63,29.53,10,10,7,18,10,28,0.00,2,Rain-Thunderstorm,176
2014-4-13,50,40,30,48,36,25,100,91,80,29.96,29.79,29.68,10,7,0,29,16,45,0.03,7,Rain-Snow,9
2014-4-14,40,32,24,25,17,11,82,59,31,30.16,30.09,29.97,10,10,10,23,17,34,0.00,3,,347
2014-4-15,46,31,16,28,20,11,86,64,43,30.20,30.07,29.84,10,10,10,21,6,26,0.00,0,,130
2014-4-16,63,46,31,41,31,28,94,65,28,30.06,29.77,29.65,10,10,7,28,15,36,0.00,6,Rain,193
2014-4-17,53,40,27,29,27,24,91,66,35,30.32,30.25,30.07,10,10,10,18,11,28,0.00,3,,1
2014-4-18,66,47,28,36,31,25,92,57,29,30.29,30.19,30.05,10,9,5,24,8,30,0.00,1,,149
2014-4-19,77,62,46,48,43,36,77,52,34,30.08,30.01,29.96,10,10,10,28,14,39,0.00,3,,186
2014-4-20,81,67,54,57,51,43,96,63,36,30.00,29.95,29.86,10,10,5,14,3,18,0.03,4,Rain-Thunderstorm,179
2014-4-21,72,60,47,57,42,26,95,55,18,30.15,30.00,29.89,10,10,7,24,12,34,0.06,1,Rain-Thunderstorm,332
2014-4-22,69,50,30,36,32,24,87,50,26,30.17,30.10,29.99,10,10,7,9,4,,0.00,2,,99
2014-4-23,56,50,46,45,38,35,90,64,48,30.00,29.86,29.71,10,10,7,30,15,41,0.03,6,Rain,131
2014-4-24,61,52,41,49,44,37,96,80,46,29.79,29.70,29.63,10,10,5,28,10,32,0.04,5,Rain-Thunderstorm,24
2014-4-25,76,54,32,50,36,30,100,60,20,29.84,29.80,29.77,10,9,3,5,1,,0.00,0,,107
2014-4-26,70,58,45,43,41,34,79,54,35,29.84,29.74,29.62,10,10,10,28,14,38,0.00,2,,91
2014-4-27,57,50,44,56,45,35,99,81,49,29.63,29.48,29.33,10,9,4,28,21,41,0.09,6,Rain-Thunderstorm,110
2014-4-28,57,50,44,57,50,45,100,99,94,29.47,29.36,29.30,10,5,1,24,19,41,0.08,7,Rain-Thunderstorm,84
2014-4-29,44,41,38,45,40,36,100,96,90,29.82,29.63,29.46,10,9,2,25,14,31,0.08,8,Rain,10
2014-4-30,42,40,37,40,38,36,95,92,88,29.89,29.85,29.81,10,9,4,22,12,29,0.02,8,Rain,327